Pontianak, Indonesia

2:47 PM WIB on April 28, 2017 (GMT +0700)
Supadio

Weather History for WIOO - July, 2013

Change the Weather History Date:

Wednesday, July 3, 2013

  Actual Average Record
Temperature  
Mean Temperature 79 °F -  
Max Temperature 85 °F - - ()
Min Temperature 73 °F - - ()
Cooling Degree Days 14    
Growing Degree Days 29 (Base 50)    
Moisture  
Dew Point 74 °F    
Average Humidity 90    
Maximum Humidity 100    
Minimum Humidity 70    
Precipitation  
Precipitation 0.59 in - - ()
Sea Level Pressure  
Sea Level Pressure 29.78 in    
Wind  
Wind Speed 3 mph ()    
Max Wind Speed 16 mph    
Max Gust Speed -    
Visibility 4.1 miles    
Events Rain , Thunderstorm    
T = Trace of Precipitation, MM = Missing Value Source: Averaged Metar Reports

Daily Weather History Graph

Daily Weather History Graph

Search for Another Location

Airport or City:

Trip Planner

Search our weather history database for the weather conditions in past years. The results will help you decide how hot, cold, wet, or windy it might be!

Date:

Astronomy

Jul. 03, 2013 Rise Set
Actual Time 5:43 AM WIB 5:50 PM WIB
Civil Twilight 5:20 AM WIB 6:12 PM WIB
Nautical Twilight 4:54 AM WIB 6:38 PM WIB
Astronomical Twilight 4:28 AM WIB 7:04 PM WIB
Moon 1:31 AM WIB (7/3) 1:53 PM WIB (7/3)
Length of Visible Light 12h 51m
Length of Day
12h 06m
Waning Crescent, 22% of the Moon is Illuminated
Jul 3
Waning Crescent
Jul 8
New
Jul 16
First Quarter
Jul 23
Full
Jul 30
Last Quarter

Hourly Weather History & Observations

Time (WIB) Temp. Heat Index Dew Point Humidity Pressure Visibility Wind Dir Wind Speed Gust Speed Precip Events Conditions
1:00 AM 77 °F - 74 °F 90% 29.77 in 4 mi Calm Calm - -   Partly Cloudy
4:00 AM 75 °F - 74 °F 96% 29.76 in 4 mi Calm Calm - -   Partly Cloudy
5:00 AM 75.2 °F - 71.6 °F 89% 29.74 in 3.7 mi Calm Calm - N/A   Mostly Cloudy
5:30 AM - - - N/A% 29.74 in 4.3 mi Calm Calm - N/A   Scattered Clouds
6:00 AM 73.4 °F - 73.4 °F 100% 29.74 in 4.3 mi Calm Calm - N/A   Scattered Clouds
6:30 AM 73.4 °F - 73.4 °F 100% - 4.3 mi Calm Calm - N/A   Scattered Clouds
7:00 AM 75 °F - 74 °F 96% 29.83 in 4 mi East 3.5 mph - -   Partly Cloudy
8:00 AM 77.0 °F - 75.2 °F 94% 29.80 in 4.3 mi NE 3.5 mph - N/A   Mostly Cloudy
8:30 AM 77.0 °F - 75.2 °F 94% 29.80 in 3.1 mi Calm Calm - N/A Rain Light Rain
9:00 AM 78.8 °F - 73.4 °F 83% 29.83 in 5.0 mi Calm Calm - N/A   Mostly Cloudy
9:30 AM 80.6 °F 86.2 °F 75.2 °F 84% 29.83 in 6.2 mi Calm Calm - N/A   Mostly Cloudy
10:00 AM 84 °F - 76 °F 70% 29.83 in 6 mi WSW 3.5 mph - -   Partly Cloudy
10:00 AM 84.2 °F 92.3 °F 75.2 °F 74% 29.80 in 6.2 mi WSW 3.5 mph - N/A   Mostly Cloudy
10:30 AM 82.4 °F 89.5 °F 75.2 °F 79% 29.80 in 6.2 mi WSW 12.7 mph - N/A   Mostly Cloudy
11:00 AM 84.2 °F 94.1 °F 77.0 °F 79% 29.80 in 5.0 mi WSW 12.7 mph - N/A   Mostly Cloudy
11:30 AM 78.8 °F - 77.0 °F 94% 29.80 in 2.5 mi Calm Calm - N/A Rain Light Rain
12:00 PM 78.8 °F - 77.0 °F 94% 29.77 in 2.5 mi South 4.6 mph - N/A Rain Light Rain
12:30 PM 84.2 °F 92.3 °F 75.2 °F 74% 29.77 in 3.7 mi SSW 6.9 mph - N/A   Mostly Cloudy
1:00 PM 85 °F - 78 °F 75% 29.78 in 6 mi SW 11.5 mph - - Rain Light Rain
1:30 PM 84.2 °F 92.3 °F 75.2 °F 74% 29.74 in 6.2 mi West 11.5 mph - N/A   Partly Cloudy
2:00 PM 84.2 °F 92.3 °F 75.2 °F 74% 29.74 in 4.3 mi WNW 8.1 mph - N/A   Partly Cloudy
2:30 PM 73.4 °F - 69.8 °F 88% 29.74 in 0.9 mi WNW 16.1 mph - N/A Rain Rain
3:00 PM 73.4 °F - 71.6 °F 94% 29.74 in 3.1 mi WNW 8.1 mph - N/A Rain , Thunderstorm Thunderstorms and Rain
4:00 PM 74 °F - 72 °F 90% 29.76 in 3 mi Calm Calm - - Rain Light Rain
4:00 PM 73.4 °F - 71.6 °F 94% 29.74 in 3.1 mi Calm Calm - N/A Rain Rain
4:30 PM 73.4 °F - 73.4 °F 100% 29.74 in 3.7 mi SW 3.5 mph - N/A Rain Rain
5:30 PM 75.2 °F - 73.4 °F 94% 29.74 in 5.0 mi Calm Calm - N/A   Mostly Cloudy
6:00 PM 75.2 °F - 71.6 °F 89% 29.74 in 4.3 mi Calm Calm - N/A   Mostly Cloudy
6:30 PM 75.2 °F - 73.4 °F 94% 29.77 in 4.3 mi Calm Calm - N/A   Mostly Cloudy
7:00 PM 75 °F - 74 °F 95% 29.78 in 4 mi East 3.5 mph - -   Partly Cloudy
7:00 PM 75.2 °F - 73.4 °F 94% 29.77 in 3.7 mi East 3.5 mph - N/A   Mostly Cloudy
7:30 PM 75.2 °F - 73.4 °F 94% 29.77 in 3.7 mi East 4.6 mph - N/A   Mostly Cloudy
8:00 PM 73.4 °F - 73.4 °F 100% 29.74 in 3.7 mi ENE 4.6 mph - N/A   Mostly Cloudy
8:30 PM 73.4 °F - 73.4 °F 100% - 3.7 mi East 3.5 mph - N/A   Mostly Cloudy
9:00 PM 73.4 °F - 73.4 °F 100% 29.80 in 3.7 mi East 4.6 mph - N/A   Mostly Cloudy
9:30 PM 73.4 °F - 73.4 °F 100% 29.80 in 3.7 mi East 3.5 mph - N/A   Mostly Cloudy
10:00 PM 74 °F - 73 °F 94% 29.82 in 4 mi East 3.5 mph - -   Mostly Cloudy
10:00 PM 73.4 °F - 73.4 °F 100% 29.80 in 3.7 mi East 3.5 mph - N/A   Mostly Cloudy